FW6113 Weather Reports


time (UTC)temp
C
wind
direction
speed
KPH
gust
KPH
rain 1hr
cm
rain 24hr
cm
rain mn
cm
humidity
%
barometer
mb
20260509024737 14 331 0.0 1.6 0.00 0.00 0.00 84 1015.7
20260509024502 14 331 0.0 1.6 0.00 0.00 0.00 84 1015.8
20260509023737 14 331 0.0 1.6 0.00 0.00 0.00 84 1015.7
20260509023235 14 331 0.0 1.6 0.00 0.00 0.00 84 1015.8
20260509022734 14 331 0.0 1.6 0.00 0.00 0.00 84 1015.8
20260509022234 14 331 0.0 1.6 0.00 0.00 0.00 84 1015.7
20260509021728 14 331 0.0 0.0 0.00 0.00 0.00 83 1015.6
20260509021227 14 331 0.0 1.6 0.00 0.00 0.00 83 1015.8
20260509020727 14 331 0.0 1.6 0.00 0.00 0.00 82 1015.8
20260509020228 15 331 0.0 1.6 0.00 0.00 0.00 82 1016.0
20260509015727 15 331 0.0 1.6 0.00 0.00 0.00 82 1016.0
20260509015226 15 331 0.0 1.6 0.00 0.00 0.00 82 1015.9
20260509014723 15 331 0.0 1.6 0.00 0.00 0.00 81 1015.9
20260509014222 15 331 0.0 1.6 0.00 0.00 0.00 81 1015.8
20260509013720 15 331 0.0 1.6 0.00 0.00 0.00 81 1015.6
20260509013218 15 331 0.0 0.0 0.00 0.00 0.00 80 1015.5
20260509012715 15 331 0.0 0.0 0.00 0.00 0.00 80 1015.5
20260509012214 15 331 0.0 1.6 0.00 0.00 0.00 80 1015.4
20260509011712 15 331 0.0 1.6 0.00 0.00 0.00 79 1015.3
20260509011211 15 331 0.0 1.6 0.00 0.00 0.00 78 1015.4
20260509010709 16 331 0.0 1.6 0.00 0.00 0.00 77 1015.3
20260509010428 16 331 0.0 0.0 0.00 0.00 0.00 77 1015.4
20260509005707 16 331 0.0 1.6 0.00 0.00 0.00 77 1015.3
20260509005207 16 331 0.0 1.6 0.00 0.00 0.00 76 1015.2
20260509004705 16 331 0.0 1.6 0.00 0.00 0.00 76 1015.2
20260509004202 16 331 0.0 1.6 0.00 0.00 0.00 76 1015.2
20260509003924 16 327 0.0 1.6 0.00 0.00 0.00 76 1015.3
20260509003202 17 326 0.0 1.6 0.00 0.00 0.00 75 1015.3
20260509002919 17 326 0.0 3.2 0.00 0.00 0.00 75 1015.3
20260509002157 17 312 0.0 3.2 0.00 0.00 0.00 74 1015.2
20260509001655 17 316 0.0 1.6 0.00 0.00 0.00 73 1015.2
20260509001156 17 265 0.0 0.0 0.00 0.00 0.00 73 1015.2
20260509000652 17 265 0.0 0.0 0.00 0.00 0.00 72 1015.1
20260509000152 17 265 0.0 1.6 0.00 0.00 0.00 71 1015.0
20260508235653 18 264 0.0 3.2 0.00 0.00 0.00 71 1015.1
20260508235152 18 265 0.0 3.2 0.00 0.00 0.00 70 1014.9
20260508234649 18 271 0.0 3.2 0.00 0.00 0.00 67 1014.9
20260508234147 18 178 0.0 3.2 0.00 0.00 0.00 69 1014.8
20260508233908 18 188 0.0 3.2 0.00 0.00 0.00 67 1014.8
20260508233144 18 192 1.6 3.2 0.00 0.00 0.00 65 1014.9
20260508232903 19 197 1.6 4.8 0.00 0.00 0.00 65 1014.9
20260508232403 19 214 3.2 4.8 0.00 0.00 0.00 64 1015.0
20260508231906 19 194 1.6 4.8 0.00 0.00 0.00 63 1015.0
20260508231139 19 205 1.6 6.4 0.00 0.00 0.00 63 1015.1
20260508230855 19 220 1.6 6.4 0.00 0.00 0.00 62 1014.9
20260508230138 19 227 1.6 6.4 0.00 0.00 0.00 62 1014.8
20260508225639 19 246 3.2 8.0 0.00 0.00 0.00 63 1014.9
20260508225138 19 191 3.2 8.0 0.00 0.00 0.00 61 1014.9
20260508224635 20 265 3.2 6.4 0.00 0.00 0.00 61 1014.8
20260508224134 20 240 3.2 6.4 0.00 0.00 0.00 60 1014.9
20260508223634 20 196 3.2 8.0 0.00 0.00 0.00 60 1014.8
20260508223134 20 241 3.2 8.0 0.00 0.00 0.00 59 1015.0
20260508222634 20 219 3.2 9.7 0.00 0.00 0.00 59 1015.0
20260508222309 20 263 1.6 6.4 0.00 0.00 0.00 58 1014.8
20260508222202 20 217 3.2 9.7 0.00 0.00 0.00 59 1014.9
20260508221942 20 217 3.2 6.4 0.00 0.00 0.00 60 1014.9
20260508221123 20 227 1.6 6.4 0.00 0.00 0.00 60 1014.8
20260508220134 20 226 3.2 6.4 0.00 0.00 0.00 59 1014.8
20260508215634 20 242 3.2 6.4 0.00 0.00 0.00 58 1014.8
20260508215135 20 215 3.2 12.9 0.00 0.00 0.00 59 1014.8
20260508214634 20 264 3.2 12.9 0.00 0.00 0.00 57 1014.7
20260508214355 20 140 3.2 9.7 0.00 0.00 0.00 57 1014.7
20260508213634 20 214 4.8 16.1 0.00 0.00 0.00 56 1014.9
20260508213134 20 253 4.8 16.1 0.00 0.00 0.00 55 1014.9
20260508212634 20 224 3.2 16.1 0.00 0.00 0.00 56 1014.9
20260508212134 20 113 3.2 9.7 0.00 0.00 0.00 55 1014.8
20260508211634 21 190 4.8 12.9 0.00 0.00 0.00 54 1014.9
20260508211133 21 250 3.2 12.9 0.00 0.00 0.00 56 1015.1
20260508210634 21 107 3.2 8.0 0.00 0.00 0.00 55 1014.9
20260508210351 21 244 4.8 9.7 0.00 0.00 0.00 56 1014.9
20260508205632 21 225 4.8 9.7 0.00 0.00 0.00 54 1014.7
20260508205133 21 225 3.2 11.3 0.00 0.00 0.00 54 1015.0
20260508204632 21 150 3.2 11.3 0.00 0.00 0.00 54 1015.0
20260508204350 21 161 3.2 11.3 0.00 0.00 0.00 54 1015.1
20260508203630 21 186 4.8 11.3 0.00 0.00 0.00 53 1015.2
20260508203129 21 250 4.8 9.7 0.00 0.00 0.00 52 1015.0
20260508202853 21 259 4.8 14.5 0.00 0.00 0.00 51 1015.0
20260508202130 21 246 4.8 14.5 0.00 0.00 0.00 53 1015.2
20260508201629 21 291 4.8 11.3 0.00 0.00 0.00 50 1015.2
20260508201129 21 220 4.8 12.9 0.00 0.00 0.00 52 1015.3
20260508200628 21 270 4.8 12.9 0.00 0.00 0.00 51 1015.4
20260508200128 21 238 4.8 12.9 0.00 0.00 0.00 53 1015.4
20260508195628 22 228 4.8 11.3 0.00 0.00 0.00 50 1015.4
20260508195125 21 174 4.8 11.3 0.00 0.00 0.00 52 1015.5
20260508194626 21 173 4.8 12.9 0.00 0.00 0.00 51 1015.5
20260508194126 21 219 4.8 12.9 0.00 0.00 0.00 51 1015.7
20260508193626 21 222 3.2 9.7 0.00 0.00 0.00 51 1015.7
20260508193125 21 227 3.2 9.7 0.00 0.00 0.00 50 1015.8
20260508192625 21 251 4.8 9.7 0.00 0.00 0.00 52 1015.9
20260508192127 21 207 3.2 8.0 0.00 0.00 0.00 50 1015.9
20260508191626 21 63 4.8 14.5 0.00 0.00 0.00 53 1016.0
20260508191125 21 209 4.8 14.5 0.00 0.00 0.00 51 1016.0
20260508190622 21 243 3.2 11.3 0.00 0.00 0.00 53 1016.1
20260508190122 21 161 4.8 12.9 0.00 0.00 0.00 54 1016.1
20260508185623 20 257 4.8 12.9 0.00 0.00 0.00 53 1016.2
20260508185123 20 209 4.8 14.5 0.00 0.00 0.00 53 1016.5
20260508184622 21 226 4.8 14.5 0.00 0.00 0.00 51 1016.4
20260508184123 21 244 3.2 12.9 0.00 0.00 0.00 56 1016.5
20260508183622 21 234 4.8 12.9 0.00 0.00 0.00 53 1016.7
20260508183346 21 259 3.2 12.9 0.00 0.00 0.00 55 1016.7
20260508182619 21 251 3.2 12.9 0.00 0.00 0.00 52 1016.9
20260508182117 21 277 3.2 11.3 0.00 0.00 0.00 55 1016.9
20260508181845 21 286 3.2 11.3 0.00 0.00 0.00 52 1016.9
20260508181118 21 296 3.2 14.5 0.00 0.00 0.00 50 1017.1
20260508180617 21 292 4.8 14.5 0.00 0.00 0.00 50 1017.2
20260508180118 21 266 4.8 12.9 0.00 0.00 0.00 51 1017.1
20260508175616 20 267 6.4 16.1 0.00 0.00 0.00 52 1017.2
20260508175115 20 196 4.8 16.1 0.00 0.00 0.00 56 1017.1
20260508174616 20 32 1.6 6.4 0.00 0.00 0.00 54 1017.1
20260508174114 19 190 1.6 4.8 0.00 0.00 0.00 57 1017.3
20260508173835 20 181 3.2 9.7 0.00 0.00 0.00 53 1017.4
20260508173112 20 235 3.2 9.7 0.00 0.00 0.00 54 1017.6
20260508172611 20 58 3.2 12.9 0.00 0.00 0.00 55 1017.6
20260508172112 19 300 3.2 12.9 0.00 0.00 0.00 55 1017.5
20260508171608 19 118 3.2 11.3 0.00 0.00 0.00 53 1017.5
20260508171108 20 227 4.8 11.3 0.00 0.00 0.00 52 1017.8
20260508170607 19 162 6.4 14.5 0.00 0.00 0.00 54 1017.9
20260508170106 20 323 4.8 14.5 0.00 0.00 0.00 50 1017.9
20260508165605 20 108 4.8 12.9 0.00 0.00 0.00 54 1017.9
20260508165104 20 246 4.8 11.3 0.00 0.00 0.00 52 1017.9
20260508164604 21 281 3.2 9.7 0.00 0.00 0.00 49 1018.0
20260508164101 20 102 3.2 9.7 0.00 0.00 0.00 53 1018.0
20260508163602 20 48 4.8 11.3 0.00 0.00 0.00 54 1018.0
20260508163328 19 321 3.2 11.3 0.00 0.00 0.00 53 1018.2
20260508162558 18 216 1.6 9.7 0.00 0.00 0.00 60 1018.2
20260508162056 19 264 3.2 9.7 0.00 0.00 0.00 57 1018.3
20260508161553 20 247 3.2 9.7 0.00 0.00 0.00 54 1018.3
20260508161049 19 171 4.8 9.7 0.00 0.00 0.00 57 1018.3
20260508160548 18 247 3.2 9.7 0.00 0.00 0.00 55 1018.3
20260508160048 18 226 1.6 8.0 0.00 0.00 0.00 56 1018.4
20260508155547 18 209 1.6 8.0 0.00 0.00 0.00 56 1018.6
20260508155045 19 240 3.2 8.0 0.00 0.00 0.00 57 1018.7
20260508154545 18 248 3.2 9.7 0.00 0.00 0.00 58 1018.8
20260508154044 18 269 4.8 11.3 0.00 0.00 0.00 56 1018.8
20260508153541 19 269 4.8 11.3 0.00 0.00 0.00 55 1018.9
20260508153041 19 152 3.2 9.7 0.00 0.00 0.00 55 1018.9
20260508152541 19 304 3.2 9.7 0.00 0.00 0.00 57 1018.9
20260508152308 19 182 3.2 12.9 0.00 0.00 0.00 58 1018.8
20260508151757 18 126 4.8 12.9 0.00 0.00 0.00 56 1018.8
20260508151039 19 240 3.2 11.3 0.00 0.00 0.00 56 1018.9
20260508150538 18 290 3.2 6.4 0.00 0.00 0.00 59 1018.9
20260508150038 19 103 3.2 8.0 0.00 0.00 0.00 58 1018.8
20260508145757 18 56 3.2 8.0 0.00 0.00 0.00 61 1018.7
20260508145037 18 240 3.2 8.0 0.00 0.00 0.00 58 1018.8
20260508144538 18 238 3.2 8.0 0.00 0.00 0.00 58 1018.8
20260508144035 17 221 3.2 11.3 0.00 0.00 0.00 62 1018.7
20260508143535 18 227 3.2 11.3 0.00 0.00 0.00 59 1018.8
20260508143033 18 105 3.2 8.0 0.00 0.00 0.00 61 1018.7
20260508142749 17 101 3.2 8.0 0.00 0.00 0.00 62 1018.8
20260508142033 17 53 3.2 9.7 0.00 0.00 0.00 63 1018.8
20260508141534 17 51 3.2 9.7 0.00 0.00 0.00 62 1018.9
20260508141033 17 202 3.2 9.7 0.00 0.00 0.00 62 1018.9
20260508140533 17 241 3.2 9.7 0.00 0.00 0.00 65 1019.0
20260508140033 16 213 3.2 8.0 0.00 0.00 0.00 66 1019.0
20260508135533 16 219 1.6 6.4 0.00 0.00 0.00 66 1019.1
20260508135033 16 132 1.6 8.0 0.00 0.03 0.00 67 1019.1
20260508134530 16 120 1.6 8.0 0.00 0.03 0.00 68 1019.2
20260508134030 16 56 1.6 8.0 0.00 0.05 0.00 69 1019.2
20260508133529 16 42 1.6 8.0 0.00 0.08 0.00 68 1019.1
20260508133258 16 42 1.6 8.0 0.00 0.10 0.00 70 1019.2
20260508132529 15 38 1.6 8.0 0.00 0.13 0.00 71 1019.0
20260508132029 15 57 0.0 4.8 0.00 0.15 0.00 76 1019.1
20260508131529 15 53 0.0 4.8 0.00 0.20 0.00 75 1019.0
20260508131029 15 46 0.0 3.2 0.00 0.23 0.00 75 1019.0
20260508130530 14 44 1.6 3.2 0.00 0.23 0.00 78 1018.9
20260508130025 14 40 1.6 3.2 0.00 0.25 0.00 78 1018.8
20260508125526 14 35 0.0 3.2 0.00 0.25 0.00 79 1018.9
20260508125025 13 34 0.0 1.6 0.00 0.28 0.00 81 1018.7
20260508124525 13 34 0.0 4.8 0.00 0.28 0.00 82 1018.8
20260508124026 13 32 0.0 4.8 0.00 0.30 0.00 82 1018.7
20260508123753 12 12 0.0 0.0 0.00 0.30 0.00 86 1018.7
20260508123025 12 12 0.0 0.0 0.00 0.33 0.00 87 1018.6
20260508122525 12 12 0.0 0.0 0.00 0.33 0.00 88 1018.6
20260508122025 12 12 0.0 0.0 0.00 0.36 0.00 89 1018.5
20260508121525 11 12 0.0 0.0 0.00 0.38 0.00 90 1018.4
20260508121025 11 12 0.0 0.0 0.00 0.41 0.00 91 1018.4
20260508120525 11 12 0.0 0.0 0.00 0.43 0.00 92 1018.3
20260508120248 11 12 0.0 0.0 0.00 0.46 0.00 93 1018.2
20260508115525 10 12 0.0 0.0 0.00 0.46 0.00 93 1018.2
20260508115025 10 12 0.0 0.0 0.00 0.48 0.00 93 1018.2
20260508115007 10 12 0.0 0.0 0.00 0.51 0.00 93 1018.2
20260508114023 10 12 0.0 0.0 0.00 0.53 0.00 93 1018.0
20260508113523 10 12 0.0 0.0 0.00 0.56 0.00 93 1017.8
20260508113244 9 12 0.0 0.0 0.00 0.56 0.00 93 1017.8
20260508112517 9 12 0.0 1.6 0.00 0.58 0.00 93 1017.6
20260508112016 9 12 0.0 1.6 0.00 0.61 0.00 93 1017.6
20260508111517 9 192 0.0 0.0 0.00 0.64 0.00 93 1017.5
20260508111017 9 193 0.0 0.0 0.00 0.66 0.00 93 1017.5
20260508110517 9 193 0.0 0.0 0.00 0.66 0.00 93 1017.4
20260508110015 9 193 0.0 0.0 0.00 0.69 0.00 93 1017.4
20260508105515 8 193 0.0 0.0 0.00 0.71 0.00 93 1017.3
20260508105016 8 192 0.0 0.0 0.00 0.71 0.00 93 1017.1
20260508104513 8 192 0.0 0.0 0.00 0.71 0.00 92 1017.2
20260508104013 8 190 0.0 0.0 0.00 0.74 0.00 92 1017.2
20260508103513 8 192 0.0 0.0 0.00 0.76 0.00 93 1017.1
20260508103012 8 190 0.0 0.0 0.00 0.76 0.00 92 1017.1
20260508102513 8 190 0.0 0.0 0.00 0.79 0.00 92 1016.9
20260508102013 9 190 0.0 0.0 0.00 0.81 0.00 92 1016.8
20260508101513 9 190 0.0 0.0 0.00 0.84 0.00 92 1016.7
20260508101013 9 193 0.0 0.0 0.00 0.86 0.00 93 1016.7
20260508100513 9 193 0.0 1.6 0.00 0.89 0.00 93 1016.5
20260508100011 9 193 0.0 1.6 0.00 0.91 0.00 93 1016.3
20260508095510 9 193 0.0 1.6 0.00 0.94 0.00 92 1016.2
20260508095010 9 192 0.0 3.2 0.00 0.97 0.00 92 1016.2
20260508094945 9 197 0.0 3.2 0.00 0.99 0.00 92 1016.0
20260508094010 9 193 0.0 3.2 0.00 1.02 0.00 92 1016.0
20260508093510 9 196 0.0 3.2 0.00 1.04 0.00 92 1016.1
20260508093232 8 194 0.0 3.2 0.00 1.07 0.00 92 1016.1
20260508092510 9 192 0.0 3.2 0.00 1.12 0.00 92 1016.1
20260508092010 9 196 1.6 3.2 0.00 1.14 0.00 92 1016.1
20260508091510 9 196 1.6 3.2 0.00 1.19 0.00 92 1016.1
20260508091234 9 195 0.0 3.2 0.00 1.22 0.00 92 1016.1
20260508090510 9 194 0.0 0.0 0.00 1.24 0.00 92 1016.0
20260508090010 9 192 0.0 0.0 0.00 1.27 0.00 92 1016.0
20260508085734 9 192 0.0 0.0 0.00 1.32 0.00 92 1016.1
20260508085005 9 192 0.0 0.0 0.00 1.35 0.00 92 1016.0
20260508084506 9 192 0.0 0.0 0.00 1.40 0.00 92 1016.2
20260508084004 9 192 0.0 0.0 0.00 1.42 0.00 92 1016.1
20260508083500 9 191 0.0 0.0 0.00 1.45 0.00 92 1016.2
20260508082959 9 191 0.0 0.0 0.00 1.50 0.00 92 1016.0
20260508082500 9 191 0.0 0.0 0.00 1.52 0.00 92 1015.8
20260508081955 9 191 0.0 0.0 0.00 1.55 0.00 92 1015.9
20260508081454 9 191 0.0 0.0 0.00 1.57 0.00 92 1016.0
20260508080954 9 191 0.0 1.6 0.00 1.63 0.00 92 1016.0
20260508080452 9 190 0.0 1.6 0.00 1.65 0.00 92 1015.9
20260508075952 9 188 0.0 1.6 0.00 1.68 0.00 91 1015.9
20260508075452 9 184 0.0 1.6 0.00 1.70 0.00 91 1015.9
20260508074952 9 189 0.0 1.6 0.00 1.75 0.00 91 1015.8
20260508074450 9 187 0.0 1.6 0.00 1.78 0.00 91 1015.9
20260508073948 9 186 0.0 1.6 0.00 1.80 0.00 91 1015.8
20260508073705 9 185 0.0 1.6 0.00 1.85 0.00 91 1015.7
20260508072946 9 182 0.0 1.6 0.00 1.88 0.00 91 1015.6
20260508072444 9 181 0.0 1.6 0.00 1.93 0.00 91 1015.6
20260508071941 9 181 0.0 1.6 0.00 1.96 0.00 91 1015.6
20260508071438 9 182 0.0 1.6 0.00 1.98 0.00 91 1015.6
20260508070938 9 184 0.0 0.0 0.00 2.03 0.00 90 1015.8
20260508070435 10 184 0.0 0.0 0.00 2.06 0.00 90 1015.6
20260508065935 10 188 0.0 1.6 0.00 2.11 0.00 90 1015.5
20260508065433 10 188 0.0 1.6 0.00 2.13 0.00 90 1015.5
20260508064934 10 188 0.0 1.6 0.00 2.18 0.00 90 1015.5
20260508064433 10 185 0.0 1.6 0.00 2.21 0.00 90 1015.4
20260508063932 10 186 0.0 1.6 0.00 2.26 0.00 90 1015.5
20260508063427 10 184 0.0 1.6 0.00 2.29 0.00 89 1015.5
20260508063143 10 184 0.0 1.6 0.00 2.34 0.00 89 1015.4
20260508062424 10 182 0.0 1.6 0.00 2.36 0.00 89 1015.4
20260508061922 10 182 0.0 1.6 0.00 2.41 0.00 89 1015.4
20260508061421 10 182 0.0 1.6 0.00 2.46 0.00 89 1015.4
20260508061146 10 180 0.0 1.6 0.00 2.49 0.00 88 1015.3
20260508060421 10 179 0.0 1.6 0.00 2.54 0.00 88 1015.3
20260508055922 10 184 0.0 1.6 0.00 2.57 0.00 88 1015.5
20260508055422 10 179 0.0 1.6 0.00 2.62 0.00 89 1015.5
20260508054921 10 184 0.0 3.2 0.00 2.67 0.00 89 1015.5
20260508054421 10 189 0.0 3.2 0.00 2.69 0.00 88 1015.5
20260508053922 11 195 0.0 1.6 0.00 2.74 0.00 88 1015.6
20260508053421 11 195 0.0 1.6 0.00 2.79 0.00 88 1015.6
20260508052921 11 195 1.6 3.2 0.00 2.82 0.00 88 1015.5
20260508052421 11 200 1.6 3.2 0.00 2.87 0.00 88 1015.5
20260508052142 11 196 1.6 3.2 0.00 2.90 0.00 88 1015.5
20260508051422 11 190 0.0 3.2 0.00 2.95 0.00 87 1015.5
20260508050922 11 188 0.0 3.2 0.00 3.00 0.00 86 1015.6
20260508050419 11 188 0.0 3.2 0.00 3.02 0.00 86 1015.4
20260508045914 11 184 0.0 1.6 0.00 3.07 0.00 86 1015.4
20260508045414 11 184 0.0 1.6 0.00 3.10 0.00 86 1015.4
20260508044914 11 182 0.0 0.0 0.00 3.12 0.00 86 1015.3
20260508044413 11 182 0.0 0.0 0.00 3.15 0.00 86 1015.2
20260508043913 11 181 0.0 0.0 0.00 3.15 0.00 86 1015.2
20260508043413 11 181 0.0 0.0 0.00 3.15 0.00 86 1015.1
20260508043351 12 182 0.0 1.6 0.00 3.15 0.00 85 1015.1
20260508042635 12 182 0.0 3.2 0.00 3.15 0.00 85 1015.0
20260508041914 12 180 0.0 3.2 0.00 3.15 0.00 85 1014.9
20260508041409 12 180 0.0 1.6 0.00 3.17 0.00 84 1014.9
20260508040909 12 178 0.0 0.0 0.00 3.17 0.00 84 1014.7
20260508040409 12 178 0.0 0.0 0.00 3.17 0.00 84 1014.8
20260508035910 12 179 0.0 0.0 0.00 3.17 3.17 84 1014.8
20260508035407 12 179 0.0 0.0 0.00 3.17 3.17 83 1014.9
20260508034908 12 181 0.0 0.0 0.00 3.17 3.17 83 1015.1
20260508034405 12 181 0.0 0.0 0.00 3.17 3.17 83 1015.1
20260508033904 12 181 0.0 0.0 0.00 3.17 3.17 82 1015.0
20260508033402 12 181 0.0 0.0 0.00 3.17 3.17 82 1015.1
20260508032900 12 181 0.0 0.0 0.00 3.17 3.17 81 1014.9
20260508032356 12 181 0.0 0.0 0.00 3.17 3.17 81 1015.0
20260508032115 13 181 0.0 0.0 0.00 3.17 3.17 81 1015.0
20260508031356 13 181 0.0 0.0 0.00 3.17 3.17 81 1015.0
20260508030856 13 181 0.0 0.0 0.00 3.20 3.17 80 1015.0
20260508030353 13 181 0.0 0.0 0.00 3.23 3.17 79 1014.8
20260508025854 13 181 0.0 0.0 0.00 3.25 3.17 78 1014.8
20260508025354 13 181 0.0 0.0 0.00 3.28 3.17 77 1014.8
20260508024852 14 181 0.0 0.0 0.00 3.30 3.17 77 1014.8